Hourly Data Report for October 03, 2014

All times are specified in Local Standard Time (LST). Add 1 hour to adjust for Daylight Saving Time where and when it is observed.

BATHURST A
NEW BRUNSWICK

47°37'47.000" N
65°44'20.000" W
58.80 m
8100505
71574
ZBF

Download Data

Hourly Data (October 2014)
Hourly Data Report for October 3, 2014
Temp Definition
°C
Dew Point Temp Definition
°C
Rel Hum Definition
%
Wind Dir Definition
10's deg

Wind Spd Definition
km/h
Visibility Definition
km
Stn Press Definition
kPa
Hmdx Definition


Wind Chill Definition


Weather Definition


TIME
00:00 Legend Double Dagger 5.7 4.5 92 25 3 24.1 101.83     LegendNANA
01:00 Legend Double Dagger 6.5 5.3 92 30 5 24.1 101.82     LegendNANA
02:00 Legend Double Dagger 7.2 5.7 90 33 5 24.1 101.77     Cloudy
03:00 Legend Double Dagger 7.6 5.8 88 34 5 24.1 101.75     LegendNANA
04:00 Legend Double Dagger 7.6 6.2 91 34 3 24.1 101.71     LegendNANA
05:00 Legend Double Dagger 7.9 6.2 89 34 4 24.1 101.66     Cloudy
06:00 Legend Double Dagger 8.0 6.5 90 34 5 24.1 101.67     LegendNANA
07:00 Legend Double Dagger 8.0 6.6 91 35 3 24.1 101.65     LegendNANA
08:00 Legend Double Dagger 9.0 7.3 89 36 3 24.1 101.69     Mostly Cloudy
09:00 Legend Double Dagger 10.5 7.0 79 2 6 24.1 101.68     LegendNANA
10:00 Legend Double Dagger 11.1 5.5 68 9 11 24.1 101.66     LegendNANA
11:00 Legend Double Dagger 12.0 5.7 65 8 8 24.1 101.64     Mostly Cloudy
12:00 Legend Double Dagger 12.8 6.4 65 36 1 24.1 101.58     LegendNANA
13:00 Legend Double Dagger 12.8 6.0 63 5 12 24.1 101.47     LegendNANA
14:00 Legend Double Dagger 13.0 6.9 66 2 7 24.1 101.39     Mostly Cloudy
15:00 Legend Double Dagger 12.6 7.1 69 5 14 24.1 101.33     LegendNANA
16:00 Legend Double Dagger 12.3 7.2 71 3 12 24.1 101.28     LegendNANA
17:00 Legend Double Dagger 11.7 8.0 78 4 13 24.1 101.22     Mainly Clear
18:00 Legend Double Dagger 10.2 8.2 87 4 7 24.1 101.20     LegendNANA
19:00 Legend Double Dagger 8.4 6.9 90 11 8 24.1 101.19     LegendNANA
20:00 Legend Double Dagger 7.5 6.3 92 36 1 24.1 101.20     Mainly Clear
21:00 Legend Double Dagger 4.8 4.1 95 36 1 24.1 101.16     LegendNANA
22:00 Legend Double Dagger 4.0 3.6 97 36 3 19.3 101.12     LegendNANA
23:00 Legend Double Dagger 6.1 5.5 96 36 1 19.3 101.10     Mostly Cloudy

Notes on Data Quality.

Legend

  • E = Estimated
  • M = Missing
  • NA = Not Available
  • ‡ = Partner data that is not subject to review by the National Climate Archives
Date modified: